Regional Weather Roundup
Issued by NWS Kansas City/Pleasant Hill, MO

Home | Current Version | Previous Version | Graphics & Text | Print | Product List | Glossary Off
Versions: 1 2 3 4 5 6 7 8 9 10 11 12 13 14 15 16 17 18 19 20 21 22 23 24 25 26 27 28 29 30 31 32 33 34 35 36 37 38 39 40 41 42 43 44 45 46 47 48 49 50

000
ASUS43 KEAX 011810
RWREAX

WEATHER ROUNDUP FOR EASTERN KANSAS AND NORTHWEST MISSOURI
NATIONAL WEATHER SERVICE KANSAS CITY/PLEASANT HILL MO
100 PM CDT SAT AUG 01 2015

KSZ040-057-103>105-MOZ028-029-037-043-011900-
...KANSAS CITY METROPOLITAN AREA...

CITY           SKY/WX    TMP DP  RH WIND       PRES   REMARKS
K.C. INTL      PTSUNNY   88  74  63 W5        30.04F HX  96
6HR MIN TEMP:  70; 6HR MAX TEMP:  88;

K.C. DOWNTOWN  MOSUNNY   88  72  58 VRB5      30.02F HX  94
6HR MIN TEMP:  75; 6HR MAX TEMP:  88;

LEES SUMMIT    MOSUNNY   88  68  51 VRB5      30.05F HX  91
6HR MIN TEMP:  72; 6HR MAX TEMP:  88;

OLATHE - IXD   MOSUNNY   89  73  59 W8        30.06F HX  97
6HR MIN TEMP:  71; 6HR MAX TEMP:  89;

OLATHE - OJC   MOSUNNY   86  71  60 NW6       30.05F HX  91
6HR MIN TEMP:  71; 6HR MAX TEMP:  88;

LAWRENCE       SUNNY     89  72  56 W3        30.04F HX  96

$$

MOZ001>008-011>017-020>025-030>033-038>040-044>046-053-054-011900-
...NORTHERN AND CENTRAL MISSOURI...

CITY           SKY/WX    TMP DP  RH WIND       PRES   REMARKS
ST. JOSEPH     MOSUNNY   87  76  69 W7        30.02F HX  97
6HR MIN TEMP:  71; 6HR MAX TEMP:  88;

MOSBY          PTCLDY    86  70  58 W7        30.02F HX  90
WARRENSBURG    TSTM      79  66  65 NW9G16    30.04S
WHITEMAN AFB   TSTM      88  72  58 W6        30.01F HX  94
6HR MIN TEMP:  70; 6HR MAX TEMP:  91;

CLINTON        SUNNY     90  73  58 SW8       30.05F HX  98
SEDALIA        MOSUNNY   91  72  53 NW6       30.04F HX  98
6HR MIN TEMP:  72; 6HR MAX TEMP:  92;

WARSAW         NOT AVBL
CHILLICOTHE      N/A     86  74  67 S6        30.02F HX  94
6HR MIN TEMP:  70; 6HR MAX TEMP:  87; 6HR PCP:  0.04;

KIRKSVILLE     CLOUDY    85  71  63 SW6       30.03F HX  90
6HR MIN TEMP:  69; 6HR MAX TEMP:  85; 6HR PCP: TRACE;


$$

MOZ041-047>049-056>058-063>065-088>090-097-011900-
...EASTERN AND SOUTHERN MISSOURI...

CITY           SKY/WX    TMP DP  RH WIND       PRES   REMARKS
ST. LOUIS INTL PTSUNNY   86  57  37 E5        30.05F
6HR MIN TEMP:  73; 6HR MAX TEMP:  88;

SPIRIT OF STL  MOSUNNY   85  63  47 VRB5      30.03F
COLUMBIA       SUNNY     87  68  52 CALM      30.04F HX  90
JEFFERSON CITY SUNNY     89  67  47 CALM      30.02F HX  92
ROLLA          MOSUNNY   88  68  51 W7        30.05F HX  91
OSAGE BEACH    SUNNY     90  70  51 W7        30.06F HX  95
SPRINGFIELD    SUNNY     88  61  40 VRB7      30.08F
BRANSON        MOSUNNY   88  63  42 NW5       30.11F
JOPLIN         SUNNY     91  63  39 VRB7      30.07F HX  92
WEST PLAINS    SUNNY     89  63  41 W8        30.10F HX  90

$$

IAZ060-094-KSZ022-034>040-054-083-096-NEZ052-066-093-011900-
...KANSAS...SOUTHEAST NEBRASKA AND IOWA...

CITY           SKY/WX    TMP DP  RH WIND       PRES   REMARKS
TOPEKA         SUNNY     89  70  53 SW8       30.04F HX  94
6HR MIN TEMP:  71; 6HR MAX TEMP:  90;

MANHATTAN      PTSUNNY   89  72  56 E3        30.04F HX  96
EMPORIA        MOSUNNY   88  69  53 CALM      30.06F HX  92
CHANUTE        MOSUNNY   89  71  55 VRB3      30.06F HX  95
WICHITA        MOSUNNY   86  71  60 S8        30.06F HX  91
OMAHA          CLOUDY    81  66  60 VRB3      30.00F
LINCOLN        CLOUDY    79  63  57 S9        30.02F
FALLS CITY     MOSUNNY   82  70  66 CALM      30.03F
LAMONI         CLOUDY    83  72  69 SW5       30.02F
DES MOINES     PTSUNNY   84  69  60 W9        30.01F

$$



USA.gov is the U.S. government's official web portal to all federal, state and local government web resources and services.